When you browse on this site, cookies collect data to enhance your experience and personalize the content and advertising you see.
Visit our Privacy Policy to learn more. By continuing to use the site, you agree to this use of cookies and data.
  • In Latvia
  • List of Countries
  • For 7 days
  • Water Temperature
  • Weather Map
  • Weather Widgets
  • user-avatar
    Login

    Hourly Weather Leshno

    Today, 23 October, Wednesday

    Time Temperature Precipitation Wind Pressure Humidity
    00:00 +11°C° 0 mm 4 mps 744 mmHg 88%
    01:00 +11°C° 0 mm 4 mps 744 mmHg 88%
    02:00 +11°C° 0 mm 4 mps 744 mmHg 88%
    03:00 +10°C° 0 mm 4 mps 744 mmHg 87%
    04:00 +10°C° 0 mm 4 mps 744 mmHg 86%
    05:00 +8°C° 0 mm 4 mps 744 mmHg 84%
    06:00 +8°C° 0 mm 4 mps 744 mmHg 86%
    07:00 +8°C° 0 mm 4 mps 744 mmHg 87%
    08:00 +8°C° 0 mm 4 mps 745 mmHg 89%
    09:00 +8°C° 0 mm 4 mps 745 mmHg 85%
    10:00 +10°C° 0 mm 4 mps 745 mmHg 81%
    11:00 +10°C° 0 mm 4 mps 745 mmHg 78%
    12:00 +10°C° 0 mm 4 mps 745 mmHg 77%
    13:00 +10°C° 0 mm 3 mps 745 mmHg 76%
    14:00 +10°C° 0 mm 3 mps 746 mmHg 76%
    15:00 +10°C° 0 mm 3 mps 746 mmHg 79%
    16:00 +9°C° 0 mm 3 mps 746 mmHg 83%
    17:00 +8°C° 0 mm 2 mps 746 mmHg 86%
    18:00 +8°C° 0 mm 2 mps 746 mmHg 86%
    19:00 +9°C° 0 mm 2 mps 746 mmHg 85%
    20:00 +10°C° 0 mm 1 mps 746 mmHg 85%
    21:00 +9°C° 0 mm 1 mps 746 mmHg 85%
    22:00 +9°C° 0 mm 1 mps 746 mmHg 85%
    23:00 +9°C° 0 mm 1 mps 746 mmHg 86%

    Tomorrow, 24 October, Thursday

    Time Temperature Precipitation Wind Pressure Humidity
    00:00 +9°C° 0 mm 1 mps 746 mmHg 87%
    01:00 +9°C° 0 mm 1 mps 746 mmHg 89%
    02:00 +8°C° 0 mm 1 mps 747 mmHg 91%
    03:00 +8°C° 0 mm 1 mps 747 mmHg 93%
    04:00 +6°C° 0 mm 2 mps 746 mmHg 94%
    05:00 +6°C° 0 mm 2 mps 746 mmHg 96%
    06:00 +6°C° 0 mm 2 mps 747 mmHg 96%
    07:00 +6°C° 0 mm 2 mps 747 mmHg 97%
    08:00 +7°C° 0 mm 1 mps 747 mmHg 97%
    09:00 +7°C° 0 mm 1 mps 747 mmHg 93%
    10:00 +8°C° 0 mm 1 mps 747 mmHg 90%
    11:00 +9°C° 0 mm 1 mps 747 mmHg 86%
    12:00 +9°C° 0 mm 1 mps 747 mmHg 84%
    13:00 +8°C° 0 mm 2 mps 747 mmHg 82%
    14:00 +8°C° 0 mm 2 mps 747 mmHg 80%
    15:00 +8°C° 0 mm 1 mps 747 mmHg 84%
    16:00 +8°C° 0 mm 1 mps 747 mmHg 88%
    17:00 +7°C° 0 mm 1 mps 747 mmHg 91%
    18:00 +7°C° 0 mm 1 mps 747 mmHg 92%
    19:00 +6°C° 0 mm 1 mps 747 mmHg 93%
    20:00 +6°C° 0 mm 1 mps 747 mmHg 94%
    21:00 +6°C° 0 mm 1 mps 747 mmHg 94%
    22:00 +6°C° 0 mm 1 mps 747 mmHg 94%
    23:00 +6°C° 0 mm 1 mps 747 mmHg 94%

    Day after tomorrow, 25 October, Friday

    Time Temperature Precipitation Wind Pressure Humidity
    00:00 +6°C° 0 mm 1 mps 747 mmHg 95%
    01:00 +5°C° 0 mm 2 mps 747 mmHg 95%
    02:00 +5°C° 0 mm 2 mps 747 mmHg 95%
    03:00 +5°C° 0 mm 2 mps 747 mmHg 95%
    04:00 +5°C° 0 mm 2 mps 746 mmHg 95%
    05:00 +5°C° 0 mm 2 mps 746 mmHg 95%
    06:00 +5°C° 0 mm 2 mps 746 mmHg 93%
    07:00 +4°C° 0 mm 3 mps 745 mmHg 92%
    08:00 +5°C° 0 mm 3 mps 745 mmHg 90%
    09:00 +7°C° 0 mm 3 mps 745 mmHg 86%
    10:00 +8°C° 0 mm 4 mps 744 mmHg 83%
    11:00 +11°C° 0 mm 4 mps 744 mmHg 79%
    12:00 +11°C° 0 mm 4 mps 744 mmHg 78%
    13:00 +12°C° 0 mm 5 mps 743 mmHg 77%
    14:00 +13°C° 0 mm 5 mps 743 mmHg 76%
    15:00 +12°C° 0 mm 5 mps 742 mmHg 80%
    16:00 +12°C° 0 mm 4 mps 742 mmHg 84%
    17:00 +11°C° 0 mm 4 mps 742 mmHg 88%
    18:00 +11°C° 0 mm 4 mps 742 mmHg 89%
    19:00 +11°C° 0 mm 4 mps 742 mmHg 90%
    20:00 +11°C° 0 mm 4 mps 743 mmHg 91%
    21:00 +11°C° 0 mm 4 mps 743 mmHg 89%
    22:00 +11°C° 0 mm 4 mps 743 mmHg 88%
    23:00 +11°C° 0 mm 4 mps 743 mmHg 87%

    26 October, Saturday

    Time Temperature Precipitation Wind Pressure Humidity
    00:00 +10°C° 0 mm 3 mps 743 mmHg 88%
    01:00 +9°C° 0 mm 3 mps 744 mmHg 90%
    02:00 +8°C° 0 mm 3 mps 744 mmHg 92%
    03:00 +8°C° 0 mm 3 mps 744 mmHg 91%
    04:00 +8°C° 0 mm 3 mps 744 mmHg 91%
    05:00 +8°C° 0 mm 3 mps 745 mmHg 90%
    06:00 +8°C° 0 mm 3 mps 745 mmHg 90%
    07:00 +8°C° 0 mm 3 mps 744 mmHg 90%
    08:00 +7°C° 0 mm 3 mps 744 mmHg 90%
    09:00 +8°C° 0 mm 3 mps 744 mmHg 85%
    10:00 +9°C° 0 mm 3 mps 744 mmHg 80%
    11:00 +9°C° 0 mm 3 mps 744 mmHg 75%
    12:00 +10°C° 0 mm 4 mps 744 mmHg 75%
    13:00 +10°C° 0 mm 4 mps 743 mmHg 75%
    14:00 +10°C° 0 mm 5 mps 742 mmHg 75%
    15:00 +10°C° 0 mm 5 mps 742 mmHg 77%
    16:00 +9°C° 0 mm 5 mps 741 mmHg 79%
    17:00 +9°C° 0 mm 5 mps 740 mmHg 81%
    18:00 +9°C° 0 mm 5 mps 740 mmHg 83%
    19:00 +10°C° 0 mm 5 mps 739 mmHg 84%
    20:00 +10°C° 0 mm 6 mps 738 mmHg 85%
    21:00 +10°C° 0 mm 6 mps 738 mmHg 85%
    22:00 +10°C° 0 mm 6 mps 738 mmHg 85%
    23:00 +10°C° 0 mm 6 mps 737 mmHg 84%

    27 October, Sunday

    Time Temperature Precipitation Wind Pressure Humidity
    00:00 +10°C° 0 mm 6 mps 737 mmHg 85%
    01:00 +10°C° 0 mm 6 mps 736 mmHg 86%
    02:00 +10°C° 0 mm 5 mps 736 mmHg 86%
    03:00 +10°C° 0.4 mm 5 mps 735 mmHg 87%
    04:00 +10°C° 0.4 mm 5 mps 735 mmHg 88%
    05:00 +10°C° 0.4 mm 5 mps 735 mmHg 89%
    06:00 +10°C° 0.7 mm 5 mps 735 mmHg 88%
    07:00 +9°C° 0.7 mm 5 mps 735 mmHg 86%
    08:00 +8°C° 0.7 mm 5 mps 734 mmHg 84%
    09:00 +8°C° 0.2 mm 5 mps 734 mmHg 81%
    10:00 +8°C° 0.2 mm 5 mps 734 mmHg 78%
    11:00 +7°C° 0.2 mm 4 mps 734 mmHg 75%
    12:00 +7°C° 0 mm 4 mps 734 mmHg 71%
    13:00 +7°C° 0 mm 4 mps 734 mmHg 67%
    14:00 +7°C° 0 mm 4 mps 734 mmHg 62%
    15:00 +6°C° 0 mm 4 mps 735 mmHg 66%
    16:00 +5°C° 0 mm 3 mps 735 mmHg 70%
    17:00 +4°C° 0 mm 3 mps 735 mmHg 74%
    18:00 +4°C° 0 mm 4 mps 734 mmHg 75%
    19:00 +4°C° 0 mm 4 mps 734 mmHg 77%
    20:00 +3°C° 0 mm 5 mps 734 mmHg 78%
    21:00 +5°C° 0.2 mm 5 mps 734 mmHg 79%
    22:00 +4°C° 0.2 mm 6 mps 734 mmHg 81%
    23:00 +4°C° 0.2 mm 6 mps 733 mmHg 82%

    28 October, Monday

    Time Temperature Precipitation Wind Pressure Humidity
    00:00 +4°C° 0.1 mm 6 mps 733 mmHg 82%
    01:00 +4°C° 0.1 mm 6 mps 733 mmHg 81%
    02:00 +5°C° 0.1 mm 5 mps 733 mmHg 81%
    03:00 +5°C° 0 mm 5 mps 733 mmHg 83%
    04:00 +5°C° 0 mm 4 mps 733 mmHg 84%
    05:00 +4°C° 0 mm 4 mps 733 mmHg 86%
    06:00 +4°C° 0.1 mm 4 mps 733 mmHg 87%
    07:00 +5°C° 0.1 mm 4 mps 733 mmHg 87%
    08:00 +5°C° 0.1 mm 3 mps 733 mmHg 87%
    09:00 +5°C° 0.3 mm 4 mps 733 mmHg 86%
    10:00 +5°C° 0.3 mm 4 mps 733 mmHg 85%
    11:00 +5°C° 0.3 mm 4 mps 733 mmHg 83%
    12:00 +5°C° 0.3 mm 4 mps 733 mmHg 83%
    13:00 +5°C° 0.3 mm 4 mps 733 mmHg 82%
    14:00 +5°C° 0.3 mm 4 mps 733 mmHg 82%
    15:00 +4°C° 0.2 mm 4 mps 734 mmHg 82%
    16:00 +4°C° 0.2 mm 4 mps 734 mmHg 83%
    17:00 +3°C° 0.2 mm 4 mps 734 mmHg 84%
    18:00 +1°C° 0.1 mm 4 mps 734 mmHg 84%
    19:00 +1°C° 0.1 mm 3 mps 735 mmHg 84%
    20:00 +1°C° 0.1 mm 3 mps 735 mmHg 84%
    21:00 -1°C° 0.1 mm 4 mps 735 mmHg 85%
    22:00 -1°C° 0.1 mm 4 mps 736 mmHg 86%
    23:00 -2°C° 0.1 mm 5 mps 736 mmHg 87%

    29 October, Tuesday

    Time Temperature Precipitation Wind Pressure Humidity
    00:00 -2°C° 0.2 mm 5 mps 736 mmHg 88%
    01:00 -2°C° 0.2 mm 5 mps 736 mmHg 88%
    02:00 -2°C° 0.2 mm 5 mps 737 mmHg 89%
    03:00 -2°C° 0.3 mm 5 mps 737 mmHg 90%
    04:00 -4°C° 0.3 mm 5 mps 737 mmHg 90%
    05:00 -4°C° 0.3 mm 5 mps 737 mmHg 91%
    06:00 -4°C° 0.2 mm 5 mps 737 mmHg 91%
    07:00 -4°C° 0.2 mm 5 mps 738 mmHg 91%
    08:00 -4°C° 0.2 mm 5 mps 738 mmHg 92%
    09:00 -4°C° 0.2 mm 6 mps 739 mmHg 89%
    10:00 -3°C° 0.2 mm 6 mps 740 mmHg 86%
    11:00 -3°C° 0.2 mm 6 mps 740 mmHg 84%
    12:00 -3°C° 0.1 mm 6 mps 741 mmHg 82%
    13:00 -3°C° 0.1 mm 6 mps 742 mmHg 80%
    14:00 -3°C° 0.1 mm 6 mps 742 mmHg 77%
    15:00 -4°C° 0 mm 5 mps 743 mmHg 77%
    16:00 -4°C° 0 mm 5 mps 744 mmHg 77%
    17:00 -4°C° 0 mm 4 mps 744 mmHg 77%
    18:00 -4°C° 0 mm 4 mps 745 mmHg 78%
    19:00 -5°C° 0 mm 4 mps 746 mmHg 79%
    20:00 -5°C° 0 mm 4 mps 746 mmHg 80%
    21:00 -5°C° 0 mm 4 mps 747 mmHg 82%
    22:00 -5°C° 0 mm 4 mps 747 mmHg 84%
    23:00 -6°C° 0 mm 3 mps 748 mmHg 85%
    Show more